When you browse on this site, cookies collect data to enhance your experience and personalize the content and advertising you see.
Visit our Privacy Policy to learn more. By continuing to use the site, you agree to this use of cookies and data.
  • en Suisse
  • Liste des pays
  • À 7 jours
  • Température de l'eau
  • Carte satellitaire
  • Carte météo
  • Widgets météo
  • user-avatar
    Se connecter

    Météo par heure à Straubing

    Ce jour, 23 Mai, Jeudi

    Heure Température Précipitation Vent Pression Humidité
    00:00 +9°C° 0 mm 2 m/s 736 mmHg 95%
    01:00 +9°C° 0 mm 2 m/s 736 mmHg 95%
    02:00 +8°C° 0 mm 2 m/s 736 mmHg 95%
    03:00 +8°C° 0 mm 2 m/s 736 mmHg 95%
    04:00 +8°C° 0 mm 1 m/s 736 mmHg 95%
    05:00 +9°C° 0 mm 1 m/s 736 mmHg 92%
    06:00 +11°C° 0 mm 1 m/s 736 mmHg 89%
    07:00 +12°C° 0 mm 1 m/s 736 mmHg 84%
    08:00 +14°C° 0 mm 2 m/s 736 mmHg 74%
    09:00 +15°C° 0 mm 2 m/s 736 mmHg 64%
    10:00 +17°C° 0 mm 2 m/s 736 mmHg 54%
    11:00 +18°C° 0 mm 2 m/s 736 mmHg 52%
    12:00 +19°C° 0 mm 2 m/s 735 mmHg 50%
    13:00 +20°C° 0 mm 2 m/s 735 mmHg 47%
    14:00 +20°C° 0 mm 2 m/s 735 mmHg 49%
    15:00 +20°C° 0 mm 2 m/s 735 mmHg 50%
    16:00 +20°C° 0 mm 2 m/s 734 mmHg 51%
    17:00 +19°C° 0 mm 2 m/s 734 mmHg 58%
    18:00 +17°C° 0 mm 2 m/s 734 mmHg 64%
    19:00 +16°C° 0 mm 2 m/s 734 mmHg 70%
    20:00 +15°C° 0 mm 1 m/s 734 mmHg 74%
    21:00 +13°C° 0 mm 1 m/s 734 mmHg 78%
    22:00 +12°C° 0 mm 1 m/s 735 mmHg 81%
    23:00 +11°C° 0 mm 1 m/s 735 mmHg 83%

    Demain, 24 Mai, Vendredi

    Heure Température Précipitation Vent Pression Humidité
    00:00 +10°C° 0 mm 1 m/s 734 mmHg 86%
    01:00 +10°C° 0 mm 1 m/s 734 mmHg 88%
    02:00 +10°C° 0 mm 1 m/s 734 mmHg 89%
    03:00 +9°C° 0 mm 1 m/s 734 mmHg 90%
    04:00 +9°C° 0 mm 1 m/s 734 mmHg 91%
    05:00 +11°C° 0 mm 1 m/s 733 mmHg 85%
    06:00 +12°C° 0 mm 1 m/s 733 mmHg 80%
    07:00 +14°C° 0 mm 1 m/s 733 mmHg 75%
    08:00 +15°C° 0 mm 0 m/s 733 mmHg 69%
    09:00 +17°C° 0 mm 0 m/s 733 mmHg 63%
    10:00 +19°C° 0 mm 0 m/s 733 mmHg 58%
    11:00 +20°C° 0 mm 0 m/s 733 mmHg 55%
    12:00 +21°C° 0 mm 0 m/s 733 mmHg 51%
    13:00 +22°C° 0 mm 0 m/s 732 mmHg 48%
    14:00 +22°C° 0 mm 0 m/s 732 mmHg 48%
    15:00 +22°C° 0 mm 0 m/s 732 mmHg 48%
    16:00 +22°C° 0 mm 0 m/s 731 mmHg 48%
    17:00 +21°C° 0 mm 0 m/s 731 mmHg 54%
    18:00 +19°C° 0 mm 0 m/s 731 mmHg 60%
    19:00 +18°C° 0 mm 0 m/s 731 mmHg 67%
    20:00 +16°C° 0 mm 0 m/s 731 mmHg 71%
    21:00 +15°C° 0 mm 0 m/s 731 mmHg 74%
    22:00 +13°C° 0 mm 0 m/s 732 mmHg 78%
    23:00 +13°C° 0 mm 0 m/s 732 mmHg 80%

    Après-demain, 25 Mai, Samedi

    Heure Température Précipitation Vent Pression Humidité
    00:00 +12°C° 0 mm 0 m/s 732 mmHg 81%
    01:00 +12°C° 0 mm 0 m/s 731 mmHg 83%
    02:00 +11°C° 0 mm 0 m/s 731 mmHg 85%
    03:00 +11°C° 0 mm 0 m/s 731 mmHg 87%
    04:00 +11°C° 0 mm 1 m/s 731 mmHg 88%
    05:00 +13°C° 0 mm 1 m/s 731 mmHg 84%
    06:00 +14°C° 0 mm 1 m/s 732 mmHg 80%
    07:00 +16°C° 0 mm 1 m/s 732 mmHg 76%
    08:00 +19°C° 0 mm 1 m/s 732 mmHg 71%
    09:00 +19°C° 0 mm 0 m/s 732 mmHg 67%
    10:00 +20°C° 0 mm 0 m/s 732 mmHg 62%
    11:00 +22°C° 0 mm 0 m/s 732 mmHg 56%
    12:00 +25°C° 0 mm 1 m/s 732 mmHg 51%
    13:00 +26°C° 0 mm 1 m/s 732 mmHg 45%
    14:00 +24°C° 0.2 mm 1 m/s 731 mmHg 53%
    15:00 +23°C° 0.2 mm 2 m/s 731 mmHg 61%
    16:00 +21°C° 0.2 mm 3 m/s 731 mmHg 69%
    17:00 +20°C° 0.2 mm 2 m/s 731 mmHg 74%
    18:00 +19°C° 0.2 mm 2 m/s 731 mmHg 79%
    19:00 +19°C° 0.2 mm 1 m/s 732 mmHg 84%
    20:00 +18°C° 0 mm 1 m/s 732 mmHg 85%
    21:00 +16°C° 0 mm 1 m/s 732 mmHg 87%
    22:00 +15°C° 0 mm 1 m/s 733 mmHg 88%
    23:00 +15°C° 0 mm 1 m/s 733 mmHg 90%

    26 Mai, Dimanche

    Heure Température Précipitation Vent Pression Humidité
    00:00 +14°C° 0 mm 1 m/s 732 mmHg 92%
    01:00 +14°C° 0 mm 1 m/s 732 mmHg 93%
    02:00 +13°C° 0 mm 1 m/s 732 mmHg 94%
    03:00 +13°C° 0 mm 1 m/s 732 mmHg 95%
    04:00 +12°C° 0 mm 1 m/s 732 mmHg 95%
    05:00 +13°C° 0 mm 1 m/s 732 mmHg 93%
    06:00 +14°C° 0 mm 1 m/s 732 mmHg 91%
    07:00 +15°C° 0 mm 1 m/s 732 mmHg 88%
    08:00 +18°C° 0 mm 1 m/s 733 mmHg 78%
    09:00 +18°C° 0 mm 2 m/s 733 mmHg 68%
    10:00 +20°C° 0 mm 2 m/s 733 mmHg 58%
    11:00 +21°C° 0 mm 2 m/s 732 mmHg 54%
    12:00 +23°C° 0 mm 2 m/s 732 mmHg 51%
    13:00 +23°C° 0 mm 2 m/s 732 mmHg 48%
    14:00 +24°C° 0 mm 2 m/s 732 mmHg 49%
    15:00 +24°C° 0 mm 2 m/s 731 mmHg 49%
    16:00 +24°C° 0 mm 3 m/s 731 mmHg 49%
    17:00 +21°C° 0 mm 2 m/s 731 mmHg 56%
    18:00 +20°C° 0 mm 2 m/s 731 mmHg 62%
    19:00 +19°C° 0 mm 2 m/s 731 mmHg 68%
    20:00 +18°C° 0 mm 1 m/s 731 mmHg 73%
    21:00 +16°C° 0 mm 1 m/s 731 mmHg 77%
    22:00 +14°C° 0 mm 1 m/s 731 mmHg 81%
    23:00 +13°C° 0 mm 1 m/s 731 mmHg 83%

    27 Mai, Lundi

    Heure Température Précipitation Vent Pression Humidité
    00:00 +13°C° 0 mm 1 m/s 730 mmHg 85%
    01:00 +12°C° 0 mm 1 m/s 730 mmHg 86%
    02:00 +11°C° 0 mm 0 m/s 730 mmHg 87%
    03:00 +10°C° 0 mm 0 m/s 729 mmHg 88%
    04:00 +10°C° 0 mm 0 m/s 729 mmHg 88%
    05:00 +12°C° 0 mm 0 m/s 729 mmHg 83%
    06:00 +14°C° 0 mm 0 m/s 729 mmHg 78%
    07:00 +15°C° 0 mm 0 m/s 729 mmHg 73%
    08:00 +17°C° 0 mm 0 m/s 729 mmHg 67%
    09:00 +21°C° 0 mm 1 m/s 728 mmHg 62%
    10:00 +22°C° 0 mm 1 m/s 728 mmHg 56%
    11:00 +23°C° 0 mm 1 m/s 727 mmHg 53%
    12:00 +24°C° 0 mm 1 m/s 727 mmHg 50%
    13:00 +24°C° 0 mm 2 m/s 726 mmHg 47%
    14:00 +24°C° 0 mm 1 m/s 726 mmHg 47%
    15:00 +24°C° 0 mm 1 m/s 725 mmHg 48%
    16:00 +24°C° 0 mm 1 m/s 725 mmHg 48%
    17:00 +23°C° 0 mm 1 m/s 724 mmHg 56%
    18:00 +21°C° 0 mm 2 m/s 724 mmHg 64%
    19:00 +19°C° 0 mm 2 m/s 724 mmHg 72%
    20:00 +18°C° 0.5 mm 2 m/s 724 mmHg 79%
    21:00 +17°C° 0.5 mm 2 m/s 724 mmHg 86%
    22:00 +15°C° 0.5 mm 1 m/s 724 mmHg 94%
    23:00 +15°C° 0.5 mm 1 m/s 724 mmHg 94%

    28 Mai, Mardi

    Heure Température Précipitation Vent Pression Humidité
    00:00 +15°C° 0.5 mm 1 m/s 724 mmHg 95%
    01:00 +15°C° 0.5 mm 1 m/s 724 mmHg 95%
    02:00 +15°C° 0.3 mm 2 m/s 724 mmHg 96%
    03:00 +14°C° 0.3 mm 2 m/s 724 mmHg 96%
    04:00 +14°C° 0.3 mm 2 m/s 724 mmHg 97%
    05:00 +14°C° 0.2 mm 2 m/s 724 mmHg 96%
    06:00 +14°C° 0.2 mm 2 m/s 724 mmHg 95%
    07:00 +15°C° 0.2 mm 2 m/s 724 mmHg 94%
    08:00 +15°C° 0.1 mm 2 m/s 725 mmHg 90%
    09:00 +16°C° 0.1 mm 2 m/s 725 mmHg 86%
    10:00 +17°C° 0.1 mm 2 m/s 725 mmHg 81%
    11:00 +17°C° 0.4 mm 2 m/s 725 mmHg 81%
    12:00 +18°C° 0.4 mm 3 m/s 725 mmHg 80%
    13:00 +18°C° 0.4 mm 3 m/s 725 mmHg 80%
    14:00 +18°C° 0.1 mm 3 m/s 725 mmHg 77%
    15:00 +18°C° 0.1 mm 3 m/s 726 mmHg 75%
    16:00 +19°C° 0.1 mm 3 m/s 726 mmHg 72%
    17:00 +18°C° 0.1 mm 3 m/s 726 mmHg 78%
    18:00 +16°C° 0.1 mm 3 m/s 726 mmHg 84%
    19:00 +14°C° 0.1 mm 3 m/s 727 mmHg 89%
    20:00 +15°C° 0.9 mm 2 m/s 727 mmHg 91%
    21:00 +14°C° 0.9 mm 2 m/s 727 mmHg 94%
    22:00 +14°C° 0.9 mm 2 m/s 728 mmHg 96%
    23:00 +14°C° 0.2 mm 2 m/s 728 mmHg 96%
    Voir plus